******************************************************************************* Revised: April 12, 2021 Venus 299 / 2 PHYSICAL DATA (updated 2020-Oct-19): Vol. Mean Radius (km) = 6051.84+-0.01 Density (g/cm^3) = 5.204 Mass x10^23 (kg) = 48.685 Volume (x10^10 km^3) = 92.843 Sidereal rot. period = 243.018484 d Sid. Rot. Rate (rad/s)= -0.00000029924 Mean solar day = 116.7490 d Equ. gravity m/s^2 = 8.870 Mom. of Inertia = 0.33 Core radius (km) = ~3200 Geometric Albedo = 0.65 Potential Love # k2 = ~0.25 GM (km^3/s^2) = 324858.592 Equatorial Radius, Re = 6051.893 km GM 1-sigma (km^3/s^2) = +-0.006 Mass ratio (Sun/Venus)= 408523.72 Atmos. pressure (bar) = 90 Max. angular diam. = 60.2" Mean Temperature (K) = 735 Visual mag. V(1,0) = -4.40 Obliquity to orbit = 177.3 deg Hill's sphere rad.,Rp = 167.1 Sidereal orb. per., y = 0.61519726 Orbit speed, km/s = 35.021 Sidereal orb. per., d = 224.70079922 Escape speed, km/s = 10.361 Perihelion Aphelion Mean Solar Constant (W/m^2) 2759 2614 2650 Maximum Planetary IR (W/m^2) 153 153 153 Minimum Planetary IR (W/m^2) 153 153 153 ******************************************************************************* ******************************************************************************* Ephemeris / WWW_USER Sat Jun 25 03:27:06 2022 Pasadena, USA / Horizons ******************************************************************************* Target body name: Venus (299) {source: DE441} Center body name: Earth (399) {source: DE441} Center-site name: GEOCENTRIC ******************************************************************************* Start time : A.D. 2022-Jan-08 09:08:00.0000 UT Stop time : A.D. 2022-Jan-08 09:28:00.0000 UT Step-size : 1 minutes ******************************************************************************* Target pole/equ : IAU_VENUS {East-longitude positive} Target radii : 6051.8 x 6051.8 x 6051.8 km {Equator, meridian, pole} Center geodetic : 0.00000000,0.00000000,0.0000000 {E-lon(deg),Lat(deg),Alt(km)} Center cylindric: 0.00000000,0.00000000,0.0000000 {E-lon(deg),Dxy(km),Dz(km)} Center pole/equ : ITRF93 {East-longitude positive} Center radii : 6378.1 x 6378.1 x 6356.8 km {Equator, meridian, pole} Target primary : Sun Vis. interferer : MOON (R_eq= 1737.400) km {source: DE441} Rel. light bend : Sun, EARTH {source: DE441} Rel. lght bnd GM: 1.3271E+11, 3.9860E+05 km^3/s^2 Atmos refraction: NO (AIRLESS) RA format : HMS Time format : CAL EOP file : eop.220623.p220916 EOP coverage : DATA-BASED 1962-JAN-20 TO 2022-JUN-23. PREDICTS-> 2022-SEP-15 Units conversion: 1 au= 149597870.700 km, c= 299792.458 km/s, 1 day= 86400.0 s Table cut-offs 1: Elevation (-90.0deg=NO ),Airmass (>38.000=NO), Daylight (NO ) Table cut-offs 2: Solar elongation ( 0.0,180.0=NO ),Local Hour Angle( 0.0=NO ) Table cut-offs 3: RA/DEC angular rate ( 0.0=NO ) ******************************************************************************* Date__(UT)__HR:MN delta deldot *************************************************** $$SOE 2022-Jan-08 09:08 0.26579301308422 -0.0038488 2022-Jan-08 09:09 0.26579301161232 -0.0034910 2022-Jan-08 09:10 0.26579301028394 -0.0031331 2022-Jan-08 09:11 0.26579300909908 -0.0027753 2022-Jan-08 09:12 0.26579300805774 -0.0024174 2022-Jan-08 09:13 0.26579300715992 -0.0020596 2022-Jan-08 09:14 0.26579300640562 -0.0017018 2022-Jan-08 09:15 0.26579300579485 -0.0013439 2022-Jan-08 09:16 0.26579300532759 -0.0009861 2022-Jan-08 09:17 0.26579300500385 -0.0006283 2022-Jan-08 09:18 0.26579300482363 -0.0002704 2022-Jan-08 09:19 0.26579300478694 0.0000874 2022-Jan-08 09:20 0.26579300489376 0.0004453 2022-Jan-08 09:21 0.26579300514411 0.0008031 2022-Jan-08 09:22 0.26579300553798 0.0011610 2022-Jan-08 09:23 0.26579300607537 0.0015188 2022-Jan-08 09:24 0.26579300675628 0.0018766 2022-Jan-08 09:25 0.26579300758072 0.0022345 2022-Jan-08 09:26 0.26579300854867 0.0025923 2022-Jan-08 09:27 0.26579300966015 0.0029502 2022-Jan-08 09:28 0.26579301091516 0.0033080 $$EOE ******************************************************************************* Column meaning: TIME Times PRIOR to 1962 are UT1, a mean-solar time closely related to the prior but now-deprecated GMT. Times AFTER 1962 are in UTC, the current civil or "wall-clock" time-scale. UTC is kept within 0.9 seconds of UT1 using integer leap-seconds for 1972 and later years. Conversion from the internal Barycentric Dynamical Time (TDB) of solar system dynamics to the non-uniform civil UT time-scale requested for output has not been determined for UTC times after the next July or January 1st. Therefore, the last known leap-second is used as a constant over future intervals. Time tags refer to the UT time-scale conversion from TDB on Earth regardless of observer location within the solar system, although clock rates may differ due to the local gravity field and no analog to "UT" may be defined for that location. Any 'b' symbol in the 1st-column denotes a B.C. date. First-column blank (" ") denotes an A.D. date. Calendar dates prior to 1582-Oct-15 are in the Julian calendar system. Later calendar dates are in the Gregorian system. NOTE: "n.a." in output means quantity "not available" at the print-time. 'delta deldot' = Apparent range ("delta", light-time aberrated) and range-rate ("delta-dot") of the target center relative to the observer. A positive "deldot" means the target center is moving away from the observer, negative indicates movement toward the observer. Units: AU and KM/S Computations by ... Solar System Dynamics Group, Horizons On-Line Ephemeris System 4800 Oak Grove Drive, Jet Propulsion Laboratory Pasadena, CA 91109 USA General site: https://ssd.jpl.nasa.gov/ Mailing list: https://ssd.jpl.nasa.gov/email_list.html System news : https://ssd.jpl.nasa.gov/horizons/news.html User Guide : https://ssd.jpl.nasa.gov/horizons/manual.html Connect : browser https://ssd.jpl.nasa.gov/horizons/app.html#/x API https://ssd-api.jpl.nasa.gov/doc/horizons.html command-line telnet ssd.jpl.nasa.gov 6775 e-mail/batch https://ssd.jpl.nasa.gov/ftp/ssd/hrzn_batch.txt scripts https://ssd.jpl.nasa.gov/ftp/ssd/SCRIPTS Author : Jon.D.Giorgini@jpl.nasa.gov ******************************************************************************* !$$SOF COMMAND = '299' START_TIME = '2022-01-08 09:08' STOP_TIME = '2022-01-08 09:28' STEP_SIZE = '1 min' QUANTITIES = '20'